Location: Goodfare
(55.2420°N, 119.7689°W)
Time: 12:52:32
(UTC+00:00)

ISS - Visible Passes

Search period start: 01 December 2021 00:00
Search period end: 11 December 2021 00:00
Orbit: 417 x 423 km, 51.6° (Epoch: 01 December)

Date Brightness Start Highest point End Pass type
(mag) Time Alt. Az. Time Alt. Az. Time Alt. Az.
01 Dec -2.8 00:37:47 10° WSW 00:41:03 44° S 00:44:19 10° E visible
01 Dec -2.6 02:14:23 10° W 02:17:34 37° SSW 02:17:34 37° SSW visible
02 Dec -2.7 01:27:14 10° W 01:30:28 41° S 01:32:21 21° SE visible
02 Dec -0.8 03:04:13 10° WSW 03:05:21 16° WSW 03:05:21 16° WSW visible
03 Dec -2.8 00:40:05 10° WSW 00:43:21 45° S 00:46:37 10° ESE visible
03 Dec -1.9 02:16:53 10° W 02:19:45 25° SSW 02:20:12 24° S visible
04 Dec -2.1 01:29:38 10° W 01:32:41 31° SSW 01:35:10 13° SE visible
04 Dec -0.5 03:07:45 10° SW 03:08:10 11° SW 03:08:10 11° SW visible
05 Dec -2.3 00:42:25 10° W 00:45:35 36° SSW 00:48:44 10° SE visible
05 Dec -1.0 02:19:44 10° WSW 02:21:47 15° SSW 02:23:16 12° S visible
06 Dec -1.2 01:32:13 10° WSW 01:34:46 20° SSW 01:37:18 10° SSE visible
07 Dec -1.4 00:44:51 10° W 00:47:42 25° SSW 00:50:32 10° SSE visible
08 Dec -0.4 01:35:46 10° SW 01:36:39 11° SW 01:37:33 10° SSW visible
09 Dec -0.6 00:47:39 10° WSW 00:49:39 15° SW 00:51:38 10° S visible
